#timestamp,LO_Frequency,Hit 
1501740015.4,286047025.2,N
1501740035.2,286047026.0,N
1501740055.1,286047026.1,N
1501740056.0,286047026.1,N
1501740075.8,286047026.5,N
1501740095.6,286047023.4,N
1501740115.5,286047019.3,N
1501740135.3,286047023.4,N
1501740155.1,286047024.3,N
1501740175.9,286047026.2,N
1501740195.7,286047024.1,N
1501740215.5,286047023.7,N
1501740235.4,286047026.6,N
1501740255.2,286047020.5,N
1501740275.0,286047021.0,N
1501740275.9,286047021.0,N
1501740295.8,286047022.7,N
1501740315.6,286047022.6,N
1501740335.4,286047023.4,N
1501740355.2,286047024.6,N
1501740375.1,286047024.8,N
1501740376.0,286047024.8,N
1501740395.8,286047026.7,N
1501740415.6,286047023.8,N
1501740435.5,286047024.2,N
1501740455.3,286047024.3,N
1501740475.1,286047023.3,N
1501740495.9,286047021.3,N
1501740515.7,286047022.4,N
1501740535.5,286047024.7,N
1501740555.4,286047022.3,N
1501740575.2,286047022.5,N
1501740595.0,286047022.5,N
1501740595.9,286047022.5,N
1501740615.8,286047024.9,N
1501740635.6,286047025.1,N
1501740655.4,286047022.3,N
1501740675.2,286047022.2,N
1501740695.1,286047022.5,N
1501740696.0,286047022.5,N
1501740715.8,286047025.2,N
1501740735.6,286047025.0,N
1501740755.5,286047022.9,N
1501740775.3,286047023.4,N
1501740795.1,286047021.4,N
1501740815.9,286047020.9,N
1501740835.7,286047022.8,N
1501740855.5,286047020.5,N
1501740875.4,286047020.9,N
1501740895.2,286047020.8,N
1501740915.0,286047020.6,N
1501740915.9,286047020.6,N
1501740935.8,286047022.4,N
1501740955.6,286047022.6,N
1501740975.4,286047024.7,N
1501740995.2,286047024.9,N
1501741015.1,286047024.4,N
1501741016.0,286047024.4,N
1501741035.8,286047024.5,N
1501741055.6,286047024.2,N
1501741075.5,286047024.4,N
1501741095.3,286047023.7,N
1501741115.1,286047023.3,N
1501741135.9,286047023.5,N
1501741155.7,286047023.3,N
1501741175.5,286047022.9,N
1501741195.4,286047023.4,N
1501741215.2,286047020.8,N
1501741235.0,286047022.7,N
1501741235.9,286047022.7,N
1501741255.8,286047025.2,N
1501741275.6,286047024.9,N
1501741295.4,286047020.7,N
1501741315.2,286047019.0,N
1501741335.1,286047019.4,N
1501741336.0,286047019.4,N
1501741355.8,286047019.4,N
1501741375.6,286047023.5,N
1501741395.5,286047023.4,N
1501741415.3,286047022.3,N
1501741435.1,286047022.2,N
1501741455.9,286047022.7,N
1501741475.7,286047023.6,N
1501741495.5,286047020.2,N
1501741515.4,286047018.1,N
1501741535.2,286047018.5,N
1501741555.0,286047016.6,N
1501741555.9,286047016.6,N
1501741575.7,286047018.4,N
1501741595.6,286047017.8,N
1501741615.4,286047018.7,N
1501741635.2,286047016.1,N
1501741655.1,286047016.6,N
1501741656.0,286047016.6,N
1501741675.8,286047014.8,N
1501741695.6,286047015.8,N
1501741715.5,286047018.7,N
1501741735.3,286047015.8,N
1501741755.1,286047016.2,N
1501741775.9,286047017.3,N
1501741795.7,286047020.2,N
1501741815.5,286047020.3,N
1501741835.4,286047017.7,N
1501741855.2,286047020.0,N
1501741875.0,286047017.9,N
1501741875.9,286047017.9,N
1501741895.7,286047016.1,N
1501741915.6,286047016.4,N
1501741935.4,286047017.0,N
1501741955.2,286047014.3,N
1501741975.1,286047013.6,N
1501741976.0,286047013.6,N
1501741995.8,286047015.5,N
1501742015.6,286047016.5,N
1501742035.5,286047015.7,N
1501742055.3,286047017.7,N
1501742075.1,286047019.5,N
1501742095.9,286047019.1,N
1501742115.7,286047021.2,N
1501742135.5,286047020.7,N
1501742155.3,286047023.6,N
1501742175.2,286047020.9,N
1501742195.0,286047022.3,N
1501742195.9,286047022.3,N
1501742215.7,286047023.2,N
1501742235.6,286047022.8,N
1501742255.4,286047022.7,N
1501742275.2,286047023.4,N
1501742295.1,286047021.7,N
1501742296.0,286047021.7,N
1501742315.8,286047019.1,N
1501742335.6,286047019.4,N
1501742355.5,286047021.4,N
1501742375.3,286047020.9,N
1501742395.1,286047020.5,N
1501742415.9,286047019.6,N
1501742435.7,286047019.3,N
1501742455.5,286047018.0,N
1501742475.3,286047018.3,N
1501742495.2,286047017.4,N
1501742515.0,286047018.2,N
1501742515.9,286047018.2,N
1501742535.7,286047020.4,N
1501742555.6,286047019.1,N
1501742575.4,286047021.5,N
1501742595.2,286047020.5,N
1501742615.1,286047022.0,N
1501742616.0,286047022.0,N
1501742635.8,286047020.8,N
1501742655.6,286047021.4,N
1501742675.5,286047017.3,N
1501742695.3,286047016.0,N
1501742715.1,286047014.1,N
1501742735.8,286047017.0,N
1501742755.7,286047018.6,N
1501742775.5,286047018.4,N
1501742795.3,286047018.2,N
1501742815.2,286047017.3,N
1501742835.9,286047020.1,N
1501742855.7,286047017.3,N
1501742875.6,286047016.7,N
1501742895.4,286047014.1,N
1501742915.2,286047013.9,N
1501742935.1,286047013.3,N
1501742936.0,286047013.3,N
1501742955.8,286047013.7,N
1501742975.6,286047011.4,N
1501742995.4,286047011.3,N
1501743015.3,286047013.8,N
1501743035.1,286047012.7,N
1501743055.8,286047011.7,N
1501743075.7,286047009.3,N
1501743095.5,286047011.6,N
1501743115.3,286047013.7,N
1501743135.2,286047015.4,N
1501743155.9,286047015.0,N
1501743175.7,286047016.4,N
1501743195.6,286047018.4,N
1501743215.4,286047018.2,N
1501743235.2,286047017.5,N
1501743255.0,286047017.4,N
1501743255.9,286047017.4,N
1501743275.8,286047014.3,N
1501743295.6,286047011.4,N
1501743315.4,286047010.9,N
1501743335.3,286047012.8,N
1501743355.1,286047011.6,N
1501743375.8,286047009.6,N
1501743395.7,286047010.3,N
1501743415.5,286047010.3,N
1501743435.3,286047009.0,N
1501743455.2,286047010.1,N
1501743475.9,286047010.0,N
1501743495.7,286047010.7,N
1501743515.6,286047008.1,N
1501743535.4,286047006.2,N
1501743555.2,286047007.3,N
1501743575.0,286047007.1,N
1501743576.0,286047007.1,N
1501743595.8,286047007.1,N
